When you browse on this site, cookies collect data to enhance your experience and personalize the content and advertising you see.
Visit our Privacy Policy to learn more. By continuing to use the site, you agree to this use of cookies and data.
  • In Austria
  • List of Countries
  • For 7 days
  • Water Temperature
  • Weather Map
  • News
  • Weather Widgets
  • user-avatar
    Login

    Hourly Weather Cuautepec de Hinojosa

    Today, 25 August, Sunday

    Time Temperature Precipitation Wind Pressure Humidity
    00:00 +15°C° 0 mm 1 mps 581 mmHg 89%
    01:00 +15°C° 0 mm 1 mps 581 mmHg 89%
    02:00 +14°C° 0 mm 1 mps 580 mmHg 88%
    03:00 +14°C° 0 mm 1 mps 580 mmHg 87%
    04:00 +14°C° 0 mm 1 mps 580 mmHg 87%
    05:00 +14°C° 0 mm 2 mps 580 mmHg 85%
    06:00 +16°C° 0 mm 1 mps 582 mmHg 79%
    07:00 +19°C° 0 mm 1 mps 583 mmHg 72%
    08:00 +21°C° 0 mm 1 mps 584 mmHg 66%
    09:00 +22°C° 0 mm 1 mps 584 mmHg 61%
    10:00 +24°C° 0 mm 1 mps 585 mmHg 55%
    11:00 +25°C° 0 mm 1 mps 585 mmHg 50%
    12:00 +24°C° 0.8 mm 2 mps 584 mmHg 58%
    13:00 +23°C° 0.8 mm 2 mps 583 mmHg 66%
    14:00 +21°C° 0.8 mm 2 mps 582 mmHg 75%
    15:00 +21°C° 1.4 mm 2 mps 582 mmHg 78%
    16:00 +20°C° 1.4 mm 2 mps 581 mmHg 82%
    17:00 +20°C° 1.4 mm 1 mps 581 mmHg 86%
    18:00 +19°C° 1.3 mm 1 mps 581 mmHg 87%
    19:00 +18°C° 1.3 mm 1 mps 581 mmHg 88%
    20:00 +16°C° 1.3 mm 1 mps 581 mmHg 89%
    21:00 +16°C° 0.3 mm 1 mps 581 mmHg 88%
    22:00 +15°C° 0.3 mm 1 mps 580 mmHg 87%
    23:00 +15°C° 0.3 mm 1 mps 580 mmHg 87%

    Tomorrow, 26 August, Monday

    Time Temperature Precipitation Wind Pressure Humidity
    00:00 +15°C° 0.1 mm 1 mps 580 mmHg 87%
    01:00 +14°C° 0.1 mm 1 mps 579 mmHg 87%
    02:00 +14°C° 0.1 mm 2 mps 579 mmHg 86%
    03:00 +14°C° 0.1 mm 2 mps 579 mmHg 86%
    04:00 +14°C° 0.1 mm 2 mps 579 mmHg 86%
    05:00 +14°C° 0.1 mm 2 mps 579 mmHg 86%
    06:00 +16°C° 0 mm 1 mps 580 mmHg 80%
    07:00 +19°C° 0 mm 1 mps 581 mmHg 74%
    08:00 +19°C° 0 mm 0 mps 582 mmHg 68%
    09:00 +22°C° 0.6 mm 1 mps 583 mmHg 67%
    10:00 +23°C° 0.6 mm 1 mps 583 mmHg 65%
    11:00 +24°C° 0.6 mm 2 mps 583 mmHg 63%
    12:00 +23°C° 0.9 mm 2 mps 582 mmHg 66%
    13:00 +23°C° 0.9 mm 2 mps 582 mmHg 69%
    14:00 +23°C° 0.9 mm 2 mps 581 mmHg 71%
    15:00 +21°C° 0.8 mm 2 mps 581 mmHg 77%
    16:00 +20°C° 0.8 mm 2 mps 580 mmHg 82%
    17:00 +19°C° 0.8 mm 2 mps 579 mmHg 88%
    18:00 +18°C° 0.6 mm 2 mps 580 mmHg 90%
    19:00 +16°C° 0.6 mm 1 mps 580 mmHg 92%
    20:00 +15°C° 0.6 mm 1 mps 580 mmHg 93%
    21:00 +15°C° 0 mm 1 mps 580 mmHg 91%
    22:00 +15°C° 0 mm 1 mps 580 mmHg 89%
    23:00 +14°C° 0 mm 1 mps 580 mmHg 87%

    Day after tomorrow, 27 August, Tuesday

    Time Temperature Precipitation Wind Pressure Humidity
    00:00 +14°C° 0 mm 1 mps 579 mmHg 87%
    01:00 +14°C° 0 mm 1 mps 579 mmHg 86%
    02:00 +14°C° 0 mm 1 mps 579 mmHg 86%
    03:00 +14°C° 0 mm 1 mps 579 mmHg 86%
    04:00 +13°C° 0 mm 1 mps 579 mmHg 86%
    05:00 +13°C° 0 mm 1 mps 579 mmHg 86%
    06:00 +15°C° 0 mm 1 mps 580 mmHg 81%
    07:00 +16°C° 0 mm 0 mps 582 mmHg 76%
    08:00 +18°C° 0 mm 0 mps 583 mmHg 70%
    09:00 +21°C° 0.1 mm 1 mps 583 mmHg 66%
    10:00 +23°C° 0.1 mm 1 mps 583 mmHg 61%
    11:00 +24°C° 0.1 mm 2 mps 584 mmHg 57%
    12:00 +23°C° 1.3 mm 2 mps 583 mmHg 65%
    13:00 +21°C° 1.3 mm 2 mps 582 mmHg 72%
    14:00 +20°C° 1.3 mm 3 mps 581 mmHg 80%
    15:00 +19°C° 0.9 mm 2 mps 581 mmHg 83%
    16:00 +18°C° 0.9 mm 2 mps 580 mmHg 86%
    17:00 +17°C° 0.9 mm 2 mps 580 mmHg 89%
    18:00 +16°C° 0.3 mm 2 mps 580 mmHg 91%
    19:00 +15°C° 0.3 mm 1 mps 580 mmHg 93%
    20:00 +14°C° 0.3 mm 1 mps 581 mmHg 95%
    21:00 +14°C° 0.1 mm 1 mps 581 mmHg 93%
    22:00 +14°C° 0.1 mm 1 mps 581 mmHg 92%
    23:00 +14°C° 0.1 mm 1 mps 581 mmHg 91%

    28 August, Wednesday

    Time Temperature Precipitation Wind Pressure Humidity
    00:00 +14°C° 0 mm 1 mps 581 mmHg 90%
    01:00 +14°C° 0 mm 1 mps 581 mmHg 90%
    02:00 +14°C° 0 mm 1 mps 581 mmHg 89%
    03:00 +13°C° 0 mm 1 mps 581 mmHg 89%
    04:00 +13°C° 0 mm 1 mps 581 mmHg 89%
    05:00 +13°C° 0 mm 1 mps 581 mmHg 89%
    06:00 +15°C° 0 mm 1 mps 582 mmHg 82%
    07:00 +18°C° 0 mm 1 mps 583 mmHg 75%
    08:00 +18°C° 0 mm 0 mps 585 mmHg 68%
    09:00 +20°C° 0 mm 2 mps 585 mmHg 63%
    10:00 +21°C° 0 mm 3 mps 585 mmHg 58%
    11:00 +23°C° 0 mm 4 mps 585 mmHg 53%
    12:00 +22°C° 0 mm 4 mps 585 mmHg 54%
    13:00 +22°C° 0 mm 4 mps 584 mmHg 56%
    14:00 +22°C° 0 mm 5 mps 584 mmHg 57%
    15:00 +20°C° 0.1 mm 4 mps 583 mmHg 65%
    16:00 +19°C° 0.1 mm 4 mps 582 mmHg 72%
    17:00 +17°C° 0.1 mm 3 mps 581 mmHg 80%
    18:00 +16°C° 0 mm 2 mps 581 mmHg 85%
    19:00 +14°C° 0 mm 2 mps 581 mmHg 91%
    20:00 +13°C° 0 mm 1 mps 581 mmHg 96%
    21:00 +13°C° 0 mm 1 mps 582 mmHg 96%
    22:00 +13°C° 0 mm 1 mps 582 mmHg 95%
    23:00 +13°C° 0 mm 1 mps 582 mmHg 94%

    29 August, Thursday

    Time Temperature Precipitation Wind Pressure Humidity
    00:00 +12°C° 0 mm 1 mps 581 mmHg 94%
    01:00 +12°C° 0 mm 1 mps 581 mmHg 94%
    02:00 +11°C° 0 mm 1 mps 580 mmHg 94%
    03:00 +11°C° 0 mm 1 mps 580 mmHg 92%
    04:00 +10°C° 0 mm 1 mps 580 mmHg 90%
    05:00 +9°C° 0 mm 0 mps 580 mmHg 87%
    06:00 +13°C° 0 mm 1 mps 582 mmHg 77%
    07:00 +15°C° 0 mm 1 mps 583 mmHg 66%
    08:00 +19°C° 0 mm 1 mps 585 mmHg 56%
    09:00 +20°C° 0 mm 1 mps 585 mmHg 51%
    10:00 +21°C° 0 mm 2 mps 585 mmHg 47%
    11:00 +23°C° 0 mm 2 mps 586 mmHg 42%
    12:00 +22°C° 0 mm 3 mps 585 mmHg 47%
    13:00 +22°C° 0 mm 4 mps 585 mmHg 52%
    14:00 +22°C° 0 mm 4 mps 584 mmHg 57%
    15:00 +20°C° 0.3 mm 4 mps 583 mmHg 68%
    16:00 +19°C° 0.3 mm 3 mps 582 mmHg 79%
    17:00 +17°C° 0.3 mm 3 mps 582 mmHg 90%
    18:00 +16°C° 0.2 mm 2 mps 582 mmHg 92%
    19:00 +15°C° 0.2 mm 2 mps 582 mmHg 94%
    20:00 +14°C° 0.2 mm 1 mps 582 mmHg 96%
    21:00 +14°C° 0 mm 1 mps 582 mmHg 96%
    22:00 +13°C° 0 mm 1 mps 582 mmHg 96%
    23:00 +13°C° 0 mm 1 mps 582 mmHg 95%

    30 August, Friday

    Time Temperature Precipitation Wind Pressure Humidity
    00:00 +12°C° 0 mm 1 mps 581 mmHg 94%
    01:00 +11°C° 0 mm 1 mps 580 mmHg 92%
    02:00 +11°C° 0 mm 1 mps 580 mmHg 91%
    03:00 +11°C° 0 mm 1 mps 580 mmHg 89%
    04:00 +11°C° 0 mm 1 mps 580 mmHg 87%
    05:00 +10°C° 0 mm 1 mps 580 mmHg 84%
    06:00 +13°C° 0 mm 1 mps 581 mmHg 74%
    07:00 +14°C° 0 mm 0 mps 583 mmHg 64%
    08:00 +17°C° 0 mm 0 mps 584 mmHg 55%
    09:00 +20°C° 0 mm 1 mps 584 mmHg 51%
    10:00 +21°C° 0 mm 2 mps 585 mmHg 47%
    11:00 +22°C° 0 mm 3 mps 585 mmHg 44%
    12:00 +22°C° 0 mm 3 mps 584 mmHg 48%
    13:00 +22°C° 0 mm 4 mps 583 mmHg 52%
    14:00 +22°C° 0 mm 4 mps 583 mmHg 56%
    15:00 +20°C° 0.2 mm 4 mps 582 mmHg 66%
    16:00 +18°C° 0.2 mm 3 mps 581 mmHg 76%
    17:00 +17°C° 0.2 mm 3 mps 581 mmHg 85%
    18:00 +16°C° 0 mm 2 mps 581 mmHg 89%
    19:00 +14°C° 0 mm 2 mps 581 mmHg 92%
    20:00 +13°C° 0 mm 1 mps 581 mmHg 96%
    21:00 +13°C° 0 mm 1 mps 581 mmHg 94%
    22:00 +13°C° 0 mm 1 mps 581 mmHg 93%
    23:00 +12°C° 0 mm 1 mps 581 mmHg 91%
    Show more